EW4715 Weather Reports


Display with metric or nautical units.
time (UTC)temp
F
wind
direction
speed
MPH
gust
MPH
rain 1hr
in
rain 24hr
in
rain mn
in
humidity
%
barometer
mb
20260508183036 38 286 0.0 0.0 0.00 0.00 0.00 72 1022.9
20260508181534 39 36 0.0 0.0 0.00 0.00 0.00 72 1022.8
20260508180038 40 321 0.0 0.0 0.00 0.00 0.00 72 1022.8
20260508174534 39 321 0.0 0.0 0.00 0.00 0.00 72 1022.9
20260508173029 39 321 0.0 0.0 0.00 0.00 0.00 72 1022.7
20260508171537 39 59 0.0 0.0 0.00 0.00 0.00 72 1022.6
20260508170030 39 59 0.0 0.0 0.00 0.00 0.00 72 1022.7
20260508164526 40 59 0.0 0.0 0.00 0.00 0.00 72 1022.6
20260508163024 40 321 0.0 0.0 0.00 0.00 0.00 72 1022.6
20260508161527 40 321 0.0 0.0 0.00 0.00 0.00 72 1022.6
20260508160048 40 321 0.0 0.0 0.00 0.00 0.00 72 1022.7
20260508154522 40 38 0.0 0.0 0.00 0.00 0.00 72 1022.7
20260508153019 39 38 0.0 0.0 0.00 0.00 0.00 72 1022.6
20260508151516 40 302 0.0 0.0 0.00 0.00 0.00 72 1022.6
20260508150019 40 302 0.0 0.0 0.00 0.00 0.00 72 1022.7
20260508144513 40 302 0.0 0.0 0.00 0.01 0.00 72 1022.5
20260508143010 40 302 0.0 0.0 0.00 0.01 0.00 72 1022.4
20260508141505 40 64 0.0 2.0 0.00 0.01 0.00 72 1022.3
20260508140002 40 64 0.0 0.0 0.00 0.01 0.00 72 1022.2
20260508134503 40 64 0.0 0.0 0.00 0.01 0.01 72 1022.3
20260508133102 40 64 0.0 0.0 0.00 0.01 0.01 72 1022.2
20260508131559 41 64 0.0 4.0 0.00 0.01 0.01 72 1022.2
20260508130100 42 53 0.0 2.0 0.00 0.01 0.01 72 1022.2
20260508124553 42 302 2.0 4.0 0.00 0.01 0.01 72 1021.9
20260508123050 43 327 0.0 4.0 0.00 0.01 0.01 72 1021.9
20260508121601 44 300 0.0 2.0 0.00 0.01 0.01 72 1021.9
20260508120045 45 57 0.0 1.0 0.00 0.01 0.01 75 1022.1
20260508114542 45 55 0.0 5.0 0.00 0.01 0.01 83 1022.0
20260508113040 46 297 1.0 2.0 0.00 0.01 0.01 93 1021.9
20260508111539 47 297 0.0 2.0 0.00 0.01 0.01 100 1021.9
20260508110049 49 297 0.0 0.0 0.00 0.01 0.01 100 1021.9
20260508104536 49 297 0.0 2.0 0.00 0.01 0.01 100 1021.8
20260508103037 50 298 0.0 0.0 0.00 0.01 0.01 100 1021.6
20260508101537 51 298 0.0 2.0 0.00 0.01 0.01 100 1021.6
20260508100034 51 273 1.0 5.0 0.00 0.01 0.01 100 1021.5
20260508094536 51 163 1.0 4.0 0.00 0.01 0.01 100 1021.5
20260508093031 52 225 0.0 6.0 0.00 0.01 0.01 100 1021.4
20260508091529 52 360 2.0 6.0 0.00 0.01 0.01 100 1021.3
20260508090028 51 245 0.0 2.0 0.00 0.01 0.01 100 1021.2
20260508084526 51 245 0.0 2.0 0.00 0.01 0.01 100 1021.0
20260508083109 52 245 0.0 2.0 0.00 0.01 0.01 100 1020.9
20260508081522 53 245 0.0 2.0 0.00 0.01 0.01 100 1020.7
20260508080025 53 286 0.0 10.0 0.00 0.01 0.01 100 1020.3
20260508074521 53 265 0.0 5.0 0.00 0.01 0.01 100 1020.0
20260508073015 53 294 0.0 2.0 0.00 0.01 0.01 100 1019.7
20260508071513 53 229 0.0 5.0 0.00 0.01 0.01 100 1019.4
20260508070013 54 101 0.0 4.0 0.00 0.01 0.01 100 1019.2
20260508064534 55 27 0.0 5.0 0.00 0.01 0.01 100 1019.0
20260508063008 56 283 1.0 3.0 0.00 0.01 0.01 100 1018.7
20260508061508 57 51 2.0 5.0 0.00 0.01 0.01 100 1018.7
20260508060005 57 19 2.0 6.0 0.00 0.01 0.01 100 1018.5
20260508054502 57 328 0.0 4.0 0.00 0.01 0.01 100 1018.1
20260508053105 58 279 1.0 4.0 0.00 0.01 0.01 100 1017.8
20260508051600 58 304 4.0 6.0 0.00 0.01 0.01 100 1017.7
20260508044558 59 343 4.0 11.0 0.00 0.01 0.01 100 1017.6
20260508043056 60 69 4.0 6.0 0.00 0.01 0.01 100 1017.4
20260508041600 59 30 2.0 6.0 0.00 0.01 0.01 100 1017.4
20260508040106 60 75 2.0 7.0 0.00 0.01 0.01 100 1017.5
20260508034556 60 55 5.0 8.0 0.00 0.01 0.01 100 1017.6
20260508033053 60 340 4.0 9.0 0.00 0.01 0.01 100 1017.4
20260508031549 58 22 3.0 6.0 0.00 0.01 0.01 100 1017.4
20260508024558 58 294 6.0 12.0 0.00 0.01 0.01 100 1017.5
20260508023047 58 288 3.0 10.0 0.00 0.01 0.01 100 1017.4
20260508021547 58 267 2.0 8.0 0.00 0.01 0.01 100 1017.4
20260508020048 58 267 4.0 6.0 0.00 0.01 0.01 100 1017.3
20260508014546 58 78 2.0 7.0 0.00 0.01 0.01 100 1017.3
20260508013041 58 66 4.0 6.0 0.00 0.01 0.01 100 1017.1
20260508011550 57 346 1.0 5.0 0.00 0.01 0.01 100 1017.1
20260508010044 58 47 1.0 11.0 0.00 0.01 0.01 100 1016.8
20260508004550 57 32 3.0 18.0 0.00 0.01 0.01 100 1016.4
20260508003038 58 285 5.0 12.0 0.00 0.01 0.01 100 1016.3
20260508001537 58 5 4.0 9.0 0.00 0.01 0.01 100 1016.1
20260508000030 57 5 5.0 12.0 0.00 0.01 0.01 100 1016.0
20260507234529 57 9 5.0 19.0 0.00 0.01 0.01 100 1015.7
20260507233024 56 211 3.0 10.0 0.00 0.01 0.01 100 1015.6
20260507231521 55 18 3.0 7.0 0.00 0.01 0.01 100 1015.5
20260507230019 55 127 5.0 10.0 0.00 0.01 0.01 100 1015.2
20260507224518 54 276 4.0 15.0 0.00 0.01 0.01 100 1014.7
20260507223014 53 49 4.0 12.0 0.00 0.01 0.01 100 1014.2
20260507221512 53 273 5.0 14.0 0.00 0.01 0.01 100 1013.8
20260507220011 53 306 1.0 10.0 0.00 0.01 0.01 100 1013.8
20260507214508 53 107 4.0 10.0 0.00 0.01 0.01 100 1013.2
20260507213005 52 49 3.0 10.0 0.00 0.01 0.01 100 1012.7
20260507211503 52 348 7.0 23.0 0.00 0.01 0.01 100 1012.7
20260507210002 49 296 3.0 12.0 0.00 0.01 0.01 100 1012.2
20260507204612 47 338 0.0 5.0 0.00 0.01 0.01 100 1011.9
20260507203058 48 277 1.0 5.0 0.00 0.01 0.01 100 1011.7
20260507201555 49 281 3.0 5.0 0.00 0.01 0.01 100 1011.6
20260507200053 50 227 0.0 11.0 0.00 0.01 0.01 100 1010.9
20260507194551 51 220 3.0 5.0 0.00 0.01 0.01 100 1010.8
20260507193053 51 214 4.0 11.0 0.00 0.01 0.01 100 1010.9
20260507191548 51 51 1.0 4.0 0.00 0.01 0.01 100 1010.9
20260507190045 50 299 1.0 10.0 0.00 0.01 0.01 87 1010.5
20260507184542 48 195 0.0 4.0 0.00 0.01 0.01 72 1010.3